Terminal Aerodrome Forecast
Issued by NWS

Home | Current Version | Previous Version | Text Only | Print | Product List | Glossary On
Versions: 1 2 3 4 5 6 7 8 9 10 11 12
000
FTUS46 KHNX 021720
TAFBFL
TAF
KBFL 021720Z 0218/0318 13004KT P6SM SKC
     FM022100 32008KT P6SM SKC
     FM030600 01005KT P6SM SKC
     FM030900 VRB03KT P6SM SKC=

USA.gov is the U.S. government's official web portal to all federal, state and local government web resources and services.